星链-3654 (STARLINK-3654 )

导读

STARLINK-3654是美国太空探索技术公司(SpaceX)于2022年3月9日发射的星链(Starlink)系列卫星,是星链全球低轨卫星互联网星座的组成部分,运行于近地轨道,旨在为全球基础设施匮乏地区提供高速、低延迟宽带互联网接入服务,支撑航空、航海、偏远地区通信等多场景应用,服务已覆盖全球超150个国家。

基本信息
目录编号:
52003
目录名称:
STARLINK-3654
国际标识:
2022-025AZ
轨道中心:
EARTH
卫星名称:
星链-3654
卫星全名:
星链-3654 (STARLINK-3654 )
卫星状态:
已陨落 最后检测时间 2025-02-17
发射日期:
2022-03-09 UTC
国别 :
美国 (US)
星等 :
--
该卫星已列入 空间交会检测服务 Space Conjunction Data Service (SCDS) ,当前飞行风险评估等级: 无高风险
轨道信息
数据来源 国际轨道数据
星历时间: 2025-02-17T18:03:31+0800
轨道信息已过期571天
半长轴: 6526.898km
偏心率: 0.000864
轨道倾角: 53.192°
近地点辐角 269.823°
升交点赤经 276.780°
平近点角 215.399°
近地点: 143.123km
远地点: 154.403km
周期: 87.462分钟
每日圈数: 16.464274
详细信息
固有亮度:
5
最大亮度:
2.5
卫星平台:
Starlink v1.5
覆盖范围:
全球
运营商:
太空探索技术公司
运营商所在国:
美国
制造商(研发单位):
太空探索技术公司
制造商所在国:
美国
使用方式:
暂无
卫星简介
星链(Starlink)计划是由太空探索技术公司(SpaceX)提出的一个巨型低轨卫星互联网星座项目,计划在2019年至2024年间在太空搭建由约1.2万颗卫星组成的“星链”网络,其中1584颗将部署在地球上空550千米处的近地轨道,并从2020年开始工作。该卫星仍在工作。
与全量物体交会距离演化趋势
与全量物体交会风险概率演化趋势